7 * 24
多渠道服务支持
STARLINK-33533 是 SpaceX Starlink 卫星互联网项目中的第 33533 颗卫星。该卫星属于星链计划的中轨道卫星群,旨在为全球用户提供高速、低延迟的互联网服务。它于近期由猎鹰 9 号火箭发射升空,加入星链星座,增强网络覆盖与连接稳定性。该卫星采用先进推进和通信技术,支持自动避碰功能,以确保在轨安全。星链项目持续扩展,推动全球互联网接入的普及与数字化发展。
美国
(US)
| 数据来源 | 国际轨道数据 |
| 星历时间: | 2025-11-07T16:00:02+0800 15小时前 查看轨道信息 |
| 半长轴: | 6847.722km |
| 偏心率: | 0.0001254 |
| 轨道倾角: | 53.159° |
| 近地点辐角 | 77.280° |
| 升交点赤经 | 258.293° |
| 平近点角 | 201.586° |
| 近地点: | 468.728km |
| 远地点: | 470.446km |
| 周期: | 93.989分钟 |
| 每日圈数: | 15.320877 |